Burley, ID

9:19 AM MST on December 16, 2017 (GMT -0700)
Burley Municipal

Weather History for KBYI - October, 2012

Change the Weather History Date:

Friday, October 26, 2012

  Actual Average Record
Temperature  
Mean Temperature 37 °F 44 °F  
Max Temperature 49 °F 56 °F 78 °F (1999)
Min Temperature 24 °F 32 °F 19 °F (1948)
Degree Days  
Heating Degree Days 28 21  
Month to date heating degree days 430 429  
Since 1 July heating degree days 522 699  
Cooling Degree Days 0 0  
Month to date cooling degree days 0 0  
Year to date cooling degree days 546 365  
Moisture  
Dew Point 22 °F    
Average Humidity 56    
Maximum Humidity 81    
Minimum Humidity 31    
Precipitation  
Precipitation 0.00 in 0.02 in 0.69 in (1975)
Month to date precipitation 0.68 0.62  
Year to date precipitation 7.48 7.93  
Sea Level Pressure  
Sea Level Pressure 30.33 in    
Wind  
Wind Speed 8 mph (SW)    
Max Wind Speed 22 mph    
Max Gust Speed 29 mph    
Visibility 10 miles    
Events      
T = Trace of Precipitation, MM = Missing Value Source: NWS Daily Summary

Daily Weather History Graph

Daily Weather History Graph

Search for Another Location

Airport or City:

Trip Planner

Search our weather history database for the weather conditions in past years. The results will help you decide how hot, cold, wet, or windy it might be!

Date:

Astronomy

Oct. 26, 2012 Rise Set
Actual Time 8:01 AM MDT 6:35 PM MDT
Civil Twilight 7:33 AM MDT 7:04 PM MDT
Nautical Twilight 7:00 AM MDT 7:37 PM MDT
Astronomical Twilight 6:27 AM MDT 8:09 PM MDT
Moon 4:55 PM MDT (10/26) 4:59 AM MDT (10/26)
Length of Visible Light 11h 31m
Length of Day
10h 33m
Waxing Gibbous, 91% of the Moon is Illuminated
Oct 26
Waxing Gibbous
Oct 29
Full
Nov 6
Last Quarter
Nov 13
New
Nov 20
First Quarter

Hourly Weather History & Observations

Time (MDT) Temp. Windchill Dew Point Humidity Pressure Visibility Wind Dir Wind Speed Gust Speed Precip Events Conditions
12:53 AM 30.9 °F 24.3 °F 21.9 °F 69% 30.44 in 10.0 mi WSW 6.9 mph - N/A   Clear
1:53 AM 28.0 °F 20.0 °F 21.0 °F 75% 30.45 in 10.0 mi WSW 8.1 mph - N/A   Clear
2:53 AM 25.0 °F 18.1 °F 19.9 °F 81% 30.46 in 10.0 mi SW 5.8 mph - N/A   Clear
3:53 AM 26.1 °F 18.4 °F 19.9 °F 78% 30.46 in 10.0 mi SSW 6.9 mph - N/A   Clear
4:53 AM 24.1 °F 16.0 °F 19.0 °F 81% 30.46 in 10.0 mi SSW 6.9 mph - N/A   Clear
5:53 AM 26.1 °F 16.8 °F 21.0 °F 81% 30.47 in 10.0 mi SSW 9.2 mph - N/A   Clear
6:53 AM 27.0 °F 19.5 °F 21.0 °F 78% 30.46 in 10.0 mi SSW 6.9 mph - N/A   Clear
7:53 AM 26.1 °F 17.6 °F 19.9 °F 78% 30.48 in 10.0 mi SSW 8.1 mph - N/A   Clear
8:53 AM 28.9 °F 21.9 °F 21.9 °F 75% 30.47 in 10.0 mi South 6.9 mph - N/A   Clear
10:53 AM 39.0 °F 32.3 °F 25.0 °F 57% 30.41 in 10.0 mi South 10.4 mph - N/A   Clear
11:53 AM 42.1 °F 37.1 °F 23.0 °F 47% 30.40 in 10.0 mi South 8.1 mph - N/A   Clear
12:53 PM 45.0 °F 38.2 °F 21.0 °F 39% 30.35 in 10.0 mi SSW 15.0 mph 21.9 mph N/A   Clear
1:53 PM 46.0 °F 40.2 °F 19.9 °F 35% 30.30 in 10.0 mi South 12.7 mph - N/A   Overcast
2:53 PM 48.0 °F - 19.9 °F 33% 30.25 in 10.0 mi SSW 10.4 mph - N/A   Overcast
3:53 PM 46.9 °F - 19.0 °F 33% 30.21 in 10.0 mi West 4.6 mph - N/A   Overcast
4:53 PM 48.0 °F - 19.9 °F 33% 30.19 in 10.0 mi West 5.8 mph - N/A   Mostly Cloudy
5:53 PM 46.0 °F 40.2 °F 21.9 °F 39% 30.16 in 10.0 mi South 12.7 mph 19.6 mph N/A   Overcast
6:53 PM 45.0 °F 37.9 °F 21.9 °F 40% 30.17 in 10.0 mi SW 16.1 mph 25.3 mph N/A   Overcast
7:53 PM 44.1 °F 41.5 °F 23.0 °F 43% 30.19 in 10.0 mi West 4.6 mph - N/A   Overcast
8:53 PM 42.1 °F 37.1 °F 26.1 °F 53% 30.19 in 10.0 mi NNE 8.1 mph - N/A   Overcast
9:53 PM 39.9 °F 35.8 °F 27.0 °F 60% 30.18 in 10.0 mi North 5.8 mph - N/A   Overcast
10:53 PM 37.0 °F 34.5 °F 28.9 °F 73% 30.18 in 10.0 mi North 3.5 mph - N/A   Overcast
11:53 PM 36.0 °F - 28.9 °F 76% 30.18 in 10.0 mi Calm Calm - N/A   Overcast